Weather in Petrovka

Ukraine / Odesa District     46°18′33″N   29°57′16″E
temp.,
°C
wind,
m/s
gust,
m/s
humid.,
%
clouds,
%
prec.,
mm/h
press.,
hPa
HPBL,
m
15 june, tue
tue1500:00+15nnw698962 0.1 1012276
03:00+14n499711 0.1 1011191
06:00+15n4896100 1.4 1010237
09:00+19ne5983100 1.8 1011471
12:00+23nne685889 0.7 10101041
15:00+24ne7758100 1.4 10071333
18:00+18nne3385100 12.1 1009256
21:00+16n2296100 16.3 100853
16 june, wed
wed1600:00+17n4995100 0.8 1008459
03:00+16ne5997100 3.1 1008272
06:00+16n239699 0.7 100870
09:00+20e237221 0.8 1010807
12:00+22e445934 0.1 10101403
15:00+22ese4357100 0.3 10111356
18:00+22se32614 1.1 10111075
21:00+17s22803 1.1 101211
17 june, thu
thu1700:00+16w3386100 0.3 101331
03:00+16nw358649 0.3 101382
06:00+16nnw4888100 0.0 1013163
09:00+17nw71190100 0.7 1013314
12:00+17nw81396100 3.4 1013622
15:00+18nnw61194100 5.2 1012491
18:00+22ne71283100 3.9 1012945
21:00+20nne51090100 5.3 1012318
18 june, fri
fri1800:00+18nne61295100 0.1 1013461
03:00+17nne81292100 0.3 1012674
06:00+17nne91492100 0.1 1012762
09:00+19e8129298 0.7 1013774
12:00+21e121579100 2.1 10141222
15:00+20ene11167999 3.0 10151183
18:00+18ese111695100 12.8 1016919
21:00+18e61289100 14.3 1017550
19 june, sat
sat1900:00+17e51192100 0.9 1018396
03:00+17ene3590100 1.3 101899
06:00+17ne5109397 0.1 1017333
09:00+22ese677380 0.4 1018757
12:00+24ese3461100 0.3 1018878
15:00+26e565977 0.4 10171126
18:00+25e5766100 0.0 1016911
21:00+20e338998 0.9 101632